Regional Weather Roundup
Issued by NWS Tiyan, Guam

Home | Current Version | Previous Version | Text Only | Print | Product List | Glossary On
Versions: 1 2 3 4 5 6 7 8 9 10 11 12 13 14 15 16 17 18 19 20 21 22 23 24 25 26 27 28 29 30 31 32 33 34 35 36 37 38 39 40 41 42 43 44 45 46 47 48 49 50
000
ASGM40 PGUM 300012
RWRGUM
WEATHER ROUNDUP FOR THE MARIANAS
NATIONAL WEATHER SERVICE TIYAN GU
1000 AM CHST SAT AUG 30 2014

GUZ001>004-300100-
MARIANA ISLANDS-

CITY           SKY/WX    TMP DP  RH WIND       PRES   REMARKS
GUAM AIRPORT   MOSUNNY   81  79  94 E5        29.83F
ANDERSEN AFB   SUNNY     79  75  89 E13       29.83F
ROTA AIRPORT   PTSUNNY   81  77  89 SE9       29.84F
TINIAN AP      TSTM      79  73  83 E20       29.83R
SAIPAN AP      LGT RAIN  81  75  83 E9        29.84R

$$



USA.gov is the U.S. government's official web portal to all federal, state and local government web resources and services.